Find Local Weather

World > North America > United States > Arizona

Phoenix, Arizona Regional Weather

Lat: 33.54N, Lon: 112.07W
Wx Zone: AZZ543
Feedback

Phoenix, AZ Regional Weather

Expires:201905202100;;183965
ASUS45 KPSR 202010
RWRAZ 

ARIZONA HOURLY REGIONAL WEATHER ROUNDUP
NATIONAL WEATHER SERVICE PHOENIX AZ
100 PM MST MON MAY 20 2019

NOTE: FAIR INDICATES FEW OR NO CLOUDS BELOW 12,000 FEET WITH NO
SIGNIFICANT WEATHER AND/OR OBSTRUCTIONS TO VISIBILITY.


AZZ540-542>544-546-548-202100-
GREATER PHOENIX AREA
  
CITY           SKY/WX    TMP DP  RH WIND       PRES   REMARKS
PHOENIX        PTSUNNY   74  33  22 SW15G23   29.75F                  
BUCKEYE        MOSUNNY   72  32  23 SW9G23    29.80                   
GLENDALE       PTSUNNY   72  34  25 S14G32    29.78S                  
LUKE AFB       MOSUNNY   73  35  24 SW17G28   29.75S                  
DEER VALLEY    LGT RAIN  59  43  55 CALM      29.78R                  
SCOTTSDALE     PTSUNNY   68  33  27 W12G24    29.78S                  
MESA-FALCON    MOSUNNY   68  31  25 S10G20    29.77F                  
MESA-GATEWAY   PTSUNNY   70  36  28 W17G23    29.80F                  
CHANDLER       PTSUNNY   72  34  25 SW21G35   29.77F                  
$$


SKY/WX - Weather  TMP - Temperature  DP - Dew Point  RH - Relative Humidity
WIND - Wind Direction/Speed PRES - Barometric Pressure VSB - Visibility
WCI - Wind Chill Index E13G22 Wind - East Wind 13 mph/Gusts of 22 mph